Torna al catalogo

IRIDIUM 33 DEB

AttivoPO
NORAD 38228·DEBRIS·🇺🇸 United States

Lanciato Sep 14, 1997 da Baikonur Cosmodrome

Loading…

Prossimi Passaggi (prossime 24 ore)

TLE

AggiornatoSource: Space-Track

Epoca: Sep 14, 2026, 09:25 UTC

1 38228U 97051ZC  26257.39251250  .00000386  00000-0  14543-3 0  9991
2 38228  86.2903 291.2549 0064389  24.9722  36.6740 14.27684444887149

Traccia IRIDIUM 33 DEB in tempo reale con AllMySat

Download on the App Store